Tracking 18980 objects as of 21-Feb-2018
HD Live streaming from Space Station
objects crossing your sky now

FENGYUN 1C DEB

Track FENGYUN 1C DEB now!
10-day predictions


NORAD ID: 30089
Int'l Code: 1999-025QS
Perigee: 752.8 km
Apogee: 864.0 km
Inclination: 99.0 °
Period: 100.9 minutes
Semi major axis: 7179 km
RCS: 0.054 m2 (small)
Launch date: May 10, 1999
Source: People's Republic of China (PRC)
Launch site: Taiyaun Space Center, China (TSC)

Note: This is SATELLITE DEBRIS
aabbcc
Your satellite tracking list
Your tracking list is empty




NASA's NSSDC Master Catalog

Two Line Element Set (TLE):
1 30089U 99025QS  18052.32023052  .00000150  00000-0  78121-4 0  9997
2 30089  98.9706 191.0671 0077472 180.6830 235.7508 14.27149431577958
Source of the keplerian elements: AFSPC